Temperature
9 9 9 10 10 10 10 10 10 10 10 10 10 10 10 10 10 10 10 10 10 10 10 10 10 10 10 10 10 10 9 9 9 9 9 9 9 9 9 9 9 8 9
8 9 9 9 9 10 10 10 10 10 10 10 10 10 10 10 10 10 10 10 10 10 10 10 10 10 9 9 9 9 9 9 8 8 7 8 8 8 8 8 8 8 8
8 8 9 9 9 9 10 10 10 9 9 9 9 9 9 9 10 9 9 9 9 9 9 9 9 9 9 9 9 9 8 8 8 8 7 7 7 7 7 8 7 7 7
8 8 9 9 9 9 9 9 9 9 9 9 9 9 9 9 9 9 9 9 9 9 9 9 9 8 8 8 8 8 8 8 7 7 7 7 6 6 6 7 7 7 7
8 8 9 9 9 9 9 9 9 9 9 9 9 8 8 8 8 8 8 8 8 8 8 8 8 8 8 8 8 8 8 7 7 7 6 6 6 6 5 5 6 6 6
8 8 8 8 9 9 9 8 8 8 8 8 8 8 8 8 8 8 8 8 8 8 8 8 8 8 8 7 7 7 7 7 7 6 6 6 5 5 5 4 4 4 5
8 8 8 8 8 8 8 8 8 8 8 8 8 8 8 8 8 7 7 7 7 7 7 7 7 7 7 7 7 7 7 6 6 6 5 5 5 5 5 4 4 3 4
8 8 8 8 8 8 8 8 8 8 8 8 7 7 7 7 7 7 7 7 7 7 7 7 7 7 7 7 7 6 6 6 6 5 5 5 5 4 4 4 3 3 3
7 7 7 8 8 8 8 8 8 8 7 7 7 7 7 7 7 7 7 7 6 6 6 6 6 6 6 6 6 6 6 5 5 5 5 4 4 4 4 4 3 3 3
7 7 7 7 7 8 7 7 7 7 7 7 7 7 7 7 6 6 6 6 6 6 6 6 6 6 6 6 5 5 5 5 5 4 4 4 4 3 3 3 3 3 2
7 7 7 7 7 7 7 7 7 7 7 7 7 7 6 6 6 6 6 6 6 6 5 5 5 5 5 5 5 5 4 4 4 4 3 3 3 3 3 3 2 2 2
7 7 7 7 7 7 7 7 7 7 6 6 6 6 6 6 6 6 5 5 5 5 5 5 5 5 4 4 4 4 4 4 4 3 3 3 3 3 2 2 2 2 2
7 7 7 7 7 7 7 7 7 6 6 6 6 6 6 5 5 5 5 5 5 5 5 4 4 4 4 4 4 4 3 3 3 3 3 2 2 2 2 1 1 1 1
6 7 7 7 7 7 6 6 6 6 6 6 5 5 5 5 5 5 5 4 4 4 4 4 4 3 3 3 3 3 3 3 3 2 2 2 2 1 1 1 1 1 1
6 6 6 6 6 6 6 6 6 6 6 5 5 5 5 5 4 4 4 4 4 4 4 3 3 3 3 3 3 2 2 2 2 2 2 1 1 1 1 0 0 0 -0
6 6 6 6 6 6 6 6 6 5 5 5 5 5 4 4 4 4 4 4 3 3 3 3 3 3 3 3 2 2 2 2 1 1 1 1 1 1 0 0 -0 -0 -1
6 6 6 6 5 5 5 5 5 5 5 5 5 4 4 4 4 3 3 3 3 3 3 3 2 2 2 2 2 1 1 1 1 1 1 1 0 0 -0 -1 -1 -1 -1
5 5 5 5 5 5 5 5 5 5 5 4 4 4 4 3 3 3 3 3 3 2 2 2 2 2 2 2 1 1 1 1 1 0 0 -0 -0 -0 -1 -1 -1 -1 -1
5 5 5 5 5 5 5 4 4 4 4 4 4 4 3 3 3 3 2 2 2 2 2 2 1 1 1 1 1 0 0 0 0 -0 -0 -1 -1 -1 -1 -1 -1 -1 -1
4 5 5 4 4 4 4 4 4 4 4 3 3 3 3 2 2 2 2 2 2 2 1 1 1 1 1 1 0 -0 -0 -0 -0 -1 -1 -1 -1 -1 -2 -2 -2 -2 -2
4 4 4 4 4 4 4 4 3 3 3 3 3 3 2 2 2 2 1 1 1 1 1 1 0 0 0 0 0 -0 -1 -1 -1 -1 -1 -1 -1 -2 -2 -2 -2 -2 -2
3 3 3 3 3 3 3 3 3 3 3 2 2 2 2 2 1 1 1 1 1 0 0 0 -0 -0 -0 -0 -0 -1 -1 -1 -1 -2 -2 -2 -2 -2 -2 -2 -2 -3 -3
3 3 3 3 3 3 3 2 2 2 2 2 2 2 2 1 1 1 1 1 0 -0 -0 -0 -0 -0 -1 -1 -1 -1 -1 -1 -2 -2 -2 -2 -2 -3 -3 -3 -3 -3 -3
2 2 2 2 2 2 2 2 2 2 2 2 1 1 1 1 1 1 0 0 -0 -0 -0 -1 -1 -1 -1 -1 -2 -2 -2 -2 -2 -2 -2 -3 -3 -3 -3 -3 -3 -4 -4
2 2 2 2 2 2 2 2 2 1 1 1 1 1 1 1 0 0 -0 -0 -0 -1 -1 -1 -1 -1 -1 -1 -2 -2 -2 -2 -2 -3 -3 -3 -3 -3 -3 -3 -4 -4 -4
1 1 1 1 1 1 1 1 1 1 1 1 1 0 0 0 -0 -0 -0 -0 -1 -1 -1 -1 -1 -1 -2 -2 -2 -2 -2 -2 -3 -3 -3 -3 -4 -4 -4 -4 -4 -4 -4
Wind_Speed
3 3 3 3 4 4 3 3 3 2 2 2 2 2 1 1 1 1 1 1 1 2 2 1 1 1 1 1 2 2 1 1 2 2 2 2 2 2 1 2 2 2 2
3 3 3 3 3 3 3 3 3 3 2 1 1 1 1 1 1 1 1 0 0 1 2 2 1 1 1 1 1 2 1 1 1 2 2 2 2 1 1 2 2 3 2
4 4 4 3 3 3 3 2 2 2 2 2 1 1 1 1 2 2 1 1 1 1 1 2 1 1 1 2 2 2 2 2 1 1 2 2 2 2 3 3 3 3 3
3 3 3 3 3 2 2 2 2 2 2 2 2 2 2 2 2 2 2 2 1 1 1 2 2 2 1 2 2 2 2 2 2 2 2 2 2 3 3 3 3 4 4
3 3 3 3 2 2 2 2 2 2 2 2 2 3 2 2 1 2 2 2 2 2 2 2 2 2 2 2 2 2 2 2 3 2 2 3 3 4 4 5 4 4 4
3 3 3 2 2 2 2 2 2 2 2 2 3 3 3 3 3 3 3 3 2 2 2 2 2 2 2 2 2 2 2 2 3 3 3 3 3 3 4 5 6 6 5
3 3 3 2 2 2 2 2 3 2 2 3 3 3 3 4 4 4 4 3 2 2 2 3 3 2 2 2 2 2 3 3 4 4 3 4 4 3 4 6 6 7 6
3 3 3 3 3 3 3 3 3 3 3 3 3 3 3 3 3 4 3 3 3 3 3 3 3 3 3 3 3 2 3 3 4 4 4 3 3 4 4 4 5 6 6
2 2 3 3 3 3 3 3 4 3 3 3 3 3 3 4 4 3 4 3 3 3 3 3 4 4 3 3 3 2 3 3 4 4 4 4 3 3 4 4 5 5 6
1 2 2 3 2 2 3 3 4 4 4 4 4 3 4 4 4 3 4 4 3 3 3 3 3 3 3 3 3 3 3 3 4 3 4 4 3 3 3 4 4 5 6
2 2 2 2 2 2 2 3 3 3 3 4 4 4 4 3 4 4 4 4 3 3 3 3 3 3 3 3 3 4 3 3 4 4 4 4 4 4 4 4 4 5 6
2 2 2 2 2 3 3 3 3 3 4 4 4 4 4 4 4 4 4 4 4 4 4 3 3 3 4 4 4 4 4 4 4 5 5 5 4 5 4 4 5 5 6
2 2 2 3 3 3 3 3 4 4 3 3 4 4 4 4 4 5 4 4 4 4 4 4 4 4 4 4 5 5 5 5 5 5 5 5 5 5 5 5 6 5 6
3 3 3 3 3 3 4 4 4 4 4 4 4 5 5 5 5 5 4 4 4 5 5 5 5 5 5 5 5 5 5 5 5 6 6 6 6 6 6 6 6 6 6
4 4 4 3 3 3 4 4 4 4 4 4 5 5 5 4 4 4 4 4 5 5 5 5 5 5 5 5 5 5 6 6 6 6 6 6 6 7 7 6 6 6 6
5 5 5 4 4 4 4 4 4 4 4 5 5 5 4 4 4 5 5 5 5 5 5 6 6 6 5 6 8 7 6 6 7 6 6 6 6 7 9 10 9 9 8
6 6 6 5 5 5 5 5 5 5 5 5 5 5 5 5 5 5 5 5 6 6 6 6 6 7 7 7 8 9 7 7 7 7 6 5 5 7 6 8 9 10 11
7 7 6 6 5 5 4 5 5 5 5 5 6 6 5 6 5 5 6 6 5 6 6 6 6 7 7 8 9 9 8 7 7 7 7 7 6 6 6 7 7 8 8
7 7 6 6 5 5 4 4 4 5 5 6 6 6 6 6 6 6 6 6 6 6 6 6 6 7 7 7 8 8 6 7 8 7 7 7 7 8 8 7 7 8 8
6 6 5 5 6 5 4 4 5 6 6 6 6 6 6 7 7 7 7 6 5 6 6 6 6 7 7 7 8 8 5 6 6 6 7 8 9 8 8 7 7 8 8
7 6 5 5 5 4 4 6 6 7 7 6 6 6 6 7 7 7 6 6 5 5 6 6 6 6 7 7 8 8 6 6 6 6 6 6 9 10 9 8 7 8 8
7 6 5 6 5 5 5 6 8 7 6 6 6 7 7 6 5 6 6 5 5 6 6 5 6 5 5 6 7 9 9 8 7 7 6 6 7 9 9 8 8 9 8
7 6 6 6 6 6 6 7 8 6 6 6 7 7 6 6 6 6 6 5 5 5 5 5 5 5 4 5 8 9 10 10 8 7 7 7 7 7 7 8 8 7 5
7 6 6 7 7 7 7 8 7 6 6 7 7 6 6 6 6 5 5 5 5 5 5 5 5 5 5 4 4 5 6 7 7 7 7 8 8 6 6 6 5 5 5
7 6 7 8 8 7 8 7 6 6 7 7 6 6 6 6 5 5 5 6 6 6 6 6 5 5 6 6 6 5 5 5 5 4 4 4 4 4 4 4 4 4 4
8 8 8 8 8 8 8 7 7 6 7 6 6 5 5 5 5 5 5 6 8 8 10 9 8 7 8 8 8 8 9 8 7 5 4 5 5 5 5 5 5 5 5
Wind_Direction
156 143 141 137 136 135 140 143 142 143 150 162 171 169 184 189 186 147 66 33 2 326 291 266 255 279 287 309 321 309 290 324 330 295 302 286 262 264 274 298 297 324 331
162 158 151 140 146 144 145 144 153 154 163 175 167 181 189 212 216 211 211 283 346 340 321 289 260 258 266 277 310 311 278 290 314 289 283 275 248 215 283 293 292 314 331
192 176 167 165 160 155 156 160 162 161 167 163 140 140 174 202 212 218 225 241 250 252 289 306 283 278 271 268 282 297 274 259 261 282 274 273 276 306 258 268 280 305 315
193 186 183 184 179 172 162 165 168 172 171 175 184 194 224 240 248 249 237 236 240 240 255 279 270 267 272 278 282 297 270 251 249 247 261 277 286 268 280 257 270 299 302
193 191 189 193 184 169 163 170 176 181 182 193 203 214 224 242 249 250 240 243 245 255 254 258 259 255 266 280 284 287 263 249 250 249 254 256 259 254 260 272 281 289 288
185 185 176 170 166 159 163 178 187 194 199 208 213 221 230 232 234 245 252 253 248 251 259 253 249 253 258 272 274 275 268 253 248 249 248 253 250 256 261 270 284 287 288
188 182 178 178 176 178 187 197 204 213 217 218 223 231 237 240 243 253 258 261 259 256 257 254 251 253 251 248 257 263 270 262 248 245 249 253 258 264 267 270 278 283 289
186 191 195 198 198 200 205 208 216 227 230 231 238 241 240 243 248 250 256 258 262 265 259 253 250 252 254 245 238 246 257 255 245 245 250 252 259 260 262 264 276 281 280
197 201 203 202 204 209 218 219 222 231 236 237 242 246 244 245 251 258 260 258 255 260 255 250 247 248 250 253 246 244 255 244 240 245 248 250 257 261 265 263 265 272 281
243 223 217 216 218 220 224 221 227 233 239 241 242 248 250 251 252 252 251 252 254 254 253 251 248 250 248 249 248 246 251 244 238 242 246 253 263 261 265 264 265 266 273
270 250 239 234 234 229 223 221 230 236 243 247 250 251 254 256 254 250 253 254 250 248 248 248 250 255 256 254 247 247 250 249 246 241 242 250 261 264 265 266 266 267 270
266 253 243 235 236 237 232 231 236 241 247 252 254 255 257 255 254 256 256 255 254 251 251 249 249 253 257 257 254 251 251 253 254 250 244 250 256 263 267 267 266 268 271
266 252 244 240 241 244 243 243 245 249 252 253 253 254 252 250 252 256 260 256 253 250 247 244 243 249 254 256 255 255 254 256 259 258 254 255 257 264 265 268 269 270 273
265 263 262 254 250 249 250 250 252 253 251 249 249 251 252 252 254 256 257 257 253 247 244 244 244 246 248 252 254 255 256 258 259 260 258 257 255 260 264 266 268 272 274
268 266 265 261 255 257 258 257 255 252 248 247 249 254 258 258 258 256 256 256 254 251 247 247 248 248 246 247 250 253 256 258 261 260 258 258 261 267 267 266 268 269 270
266 267 266 265 261 260 259 258 254 251 247 249 254 258 259 256 254 256 256 255 255 252 247 247 248 249 248 244 244 250 254 256 258 262 262 262 259 261 264 266 269 267 265
268 266 266 267 267 265 258 254 251 247 247 251 256 256 254 255 255 255 253 254 256 254 249 249 250 252 253 247 246 246 251 253 256 260 261 262 262 263 265 267 267 265 264
273 271 269 268 271 269 261 254 248 242 245 251 255 256 254 257 259 256 255 256 257 256 254 253 253 256 257 251 252 251 248 251 254 255 256 259 264 261 266 274 272 272 267
276 274 270 268 269 264 256 249 248 246 247 251 254 255 253 255 257 257 259 260 259 259 257 257 255 256 260 252 252 254 253 251 254 255 253 255 260 261 266 271 273 278 278
282 276 273 270 265 262 249 245 251 252 253 256 260 261 255 253 254 258 261 260 258 261 262 258 256 256 260 253 250 251 249 252 256 256 253 250 256 263 265 265 268 274 282
289 282 274 268 266 262 249 252 256 257 261 263 262 261 257 254 256 259 259 257 256 259 261 261 262 260 259 256 250 249 244 248 255 256 256 253 254 261 264 266 266 274 288
290 284 277 276 274 260 248 255 261 267 267 261 259 260 259 257 253 253 256 254 251 254 260 263 269 267 260 255 253 250 249 252 252 255 258 259 258 260 264 264 269 277 281
284 283 280 279 276 264 252 257 267 269 265 260 261 262 261 258 252 249 250 250 246 250 258 260 266 271 268 259 251 254 254 254 255 258 260 263 262 263 262 263 269 271 268
279 280 278 275 275 271 263 263 267 263 257 259 263 263 260 260 255 249 245 244 244 248 256 258 262 269 271 265 258 253 254 254 255 259 255 253 254 256 260 266 266 262 263
275 272 268 270 275 277 272 268 264 256 255 259 260 259 256 255 255 250 247 246 247 246 250 258 260 262 265 264 260 258 249 247 247 251 248 244 248 251 254 260 264 265 265
274 271 267 268 271 273 274 271 261 250 250 255 256 254 252 251 251 254 261 248 249 255 255 260 263 262 266 275 267 263 259 251 243 241 244 244 246 251 256 261 264 263 264
Height
1504 1505 1506 1506 1508 1509 1510 1511 1512 1513 1514 1514 1514 1514 1514 1515 1515 1515 1514 1514 1514 1513 1513 1512 1512 1511 1511 1510 1509 1509 1508 1507 1506 1505 1504 1503 1503 1502 1501 1501 1500 1499 1498
1503 1504 1504 1505 1506 1507 1508 1509 1511 1511 1512 1512 1512 1512 1513 1512 1512 1512 1512 1511 1511 1510 1510 1509 1509 1508 1508 1508 1507 1506 1505 1504 1504 1503 1503 1502 1502 1500 1499 1498 1497 1496 1495
1501 1502 1503 1505 1506 1506 1507 1508 1509 1509 1510 1510 1510 1510 1510 1510 1509 1509 1509 1508 1508 1507 1507 1506 1506 1506 1505 1505 1504 1503 1503 1502 1502 1501 1502 1502 1500 1498 1497 1495 1495 1494 1492
1500 1501 1502 1503 1504 1505 1506 1507 1507 1508 1508 1508 1508 1508 1508 1507 1507 1507 1506 1505 1505 1504 1504 1503 1503 1503 1502 1502 1501 1500 1500 1499 1499 1499 1498 1499 1497 1497 1495 1494 1492 1491 1490
1498 1499 1501 1502 1502 1503 1504 1505 1506 1506 1506 1506 1505 1505 1505 1505 1504 1504 1503 1503 1502 1501 1501 1500 1500 1500 1499 1498 1498 1497 1496 1496 1496 1496 1495 1495 1494 1494 1493 1491 1489 1488 1487
1498 1498 1499 1500 1501 1502 1502 1503 1504 1504 1504 1503 1503 1503 1503 1502 1502 1501 1500 1500 1499 1498 1498 1497 1497 1496 1496 1495 1495 1494 1493 1493 1492 1492 1492 1492 1491 1490 1490 1488 1486 1485 1483
1496 1497 1497 1498 1499 1500 1501 1501 1502 1502 1502 1501 1501 1501 1500 1500 1499 1499 1498 1497 1496 1495 1495 1494 1493 1493 1492 1492 1491 1490 1490 1489 1489 1488 1488 1488 1488 1487 1486 1485 1483 1481 1479
1495 1496 1496 1497 1498 1498 1499 1499 1499 1500 1499 1499 1498 1498 1498 1497 1496 1496 1495 1494 1493 1492 1491 1491 1490 1489 1489 1488 1487 1486 1486 1485 1485 1485 1485 1484 1484 1483 1482 1481 1480 1478 1476
1494 1495 1495 1496 1496 1497 1497 1497 1497 1497 1497 1497 1496 1496 1495 1494 1494 1493 1492 1491 1490 1489 1488 1488 1487 1486 1485 1484 1483 1483 1482 1481 1481 1481 1481 1480 1480 1479 1478 1477 1477 1476 1473
1493 1493 1494 1494 1494 1495 1495 1495 1495 1495 1494 1494 1493 1493 1492 1492 1491 1490 1489 1488 1487 1486 1485 1484 1483 1482 1482 1481 1480 1479 1478 1477 1476 1476 1476 1476 1475 1475 1474 1473 1472 1472 1470
1491 1492 1492 1492 1493 1493 1493 1493 1492 1492 1492 1491 1490 1490 1489 1488 1488 1487 1486 1485 1484 1483 1482 1481 1480 1479 1478 1477 1476 1475 1473 1473 1472 1472 1472 1472 1471 1470 1470 1469 1468 1467 1466
1490 1490 1490 1490 1490 1490 1490 1490 1490 1489 1489 1488 1487 1486 1486 1485 1484 1483 1482 1481 1480 1479 1478 1477 1476 1475 1474 1473 1472 1471 1470 1469 1468 1468 1467 1467 1466 1466 1465 1464 1463 1463 1461
1488 1488 1488 1488 1488 1487 1487 1487 1486 1486 1485 1484 1484 1483 1482 1481 1480 1480 1479 1478 1477 1476 1475 1474 1473 1472 1471 1470 1469 1467 1466 1465 1464 1463 1462 1462 1461 1461 1460 1459 1459 1458 1457
1486 1486 1486 1485 1485 1485 1484 1484 1483 1483 1482 1481 1480 1479 1479 1478 1477 1476 1475 1474 1473 1472 1471 1470 1469 1468 1467 1466 1465 1464 1462 1461 1460 1459 1458 1457 1457 1456 1456 1455 1454 1453 1452
1484 1484 1483 1483 1482 1482 1481 1481 1480 1479 1478 1478 1477 1476 1475 1474 1473 1472 1471 1470 1469 1468 1467 1466 1465 1464 1463 1462 1461 1459 1458 1457 1456 1455 1454 1453 1452 1451 1451 1450 1449 1448 1447
1481 1481 1480 1480 1479 1479 1478 1477 1476 1476 1475 1474 1473 1472 1471 1470 1469 1468 1467 1466 1465 1464 1463 1462 1461 1460 1459 1458 1457 1455 1454 1453 1452 1451 1450 1449 1448 1447 1446 1445 1444 1444 1442
1478 1477 1477 1476 1476 1475 1474 1474 1473 1472 1471 1470 1469 1468 1467 1466 1465 1464 1463 1462 1461 1459 1458 1457 1456 1455 1454 1453 1452 1451 1450 1449 1448 1447 1445 1444 1443 1443 1442 1441 1439 1438 1437
1475 1474 1473 1472 1472 1471 1470 1470 1469 1468 1467 1466 1465 1464 1463 1462 1461 1459 1458 1457 1456 1455 1453 1452 1451 1450 1449 1448 1447 1446 1445 1444 1443 1442 1441 1440 1439 1438 1437 1436 1434 1433 1432
1471 1470 1469 1469 1468 1467 1466 1465 1464 1463 1462 1461 1460 1459 1458 1457 1456 1454 1453 1452 1451 1450 1448 1447 1446 1445 1444 1443 1442 1441 1440 1439 1438 1438 1437 1436 1435 1434 1433 1431 1430 1428 1427
1467 1466 1465 1464 1463 1463 1462 1460 1459 1458 1457 1456 1455 1454 1453 1452 1451 1450 1449 1448 1446 1445 1443 1442 1441 1440 1439 1438 1437 1437 1435 1434 1434 1433 1432 1432 1431 1430 1428 1427 1425 1423 1422
1462 1461 1460 1459 1459 1458 1457 1456 1455 1454 1453 1452 1450 1449 1448 1447 1446 1445 1444 1443 1441 1440 1438 1437 1436 1435 1434 1433 1432 1432 1431 1430 1429 1428 1427 1427 1426 1425 1424 1422 1421 1419 1418
1458 1457 1456 1455 1454 1454 1452 1451 1450 1449 1448 1446 1445 1444 1443 1442 1441 1440 1439 1438 1436 1435 1434 1432 1431 1430 1429 1428 1427 1427 1426 1425 1424 1423 1423 1422 1421 1420 1419 1418 1416 1415 1413
1454 1453 1451 1450 1449 1449 1448 1446 1445 1444 1443 1441 1440 1439 1438 1437 1436 1435 1434 1432 1431 1430 1429 1428 1426 1425 1425 1424 1423 1422 1421 1420 1420 1419 1418 1418 1417 1415 1414 1413 1412 1410 1408
1449 1448 1447 1445 1444 1444 1443 1442 1440 1439 1438 1436 1435 1434 1433 1432 1431 1430 1429 1427 1426 1425 1424 1423 1422 1421 1420 1419 1418 1417 1416 1416 1415 1414 1413 1413 1412 1411 1409 1408 1407 1406 1404
1445 1443 1442 1441 1440 1439 1437 1436 1435 1434 1432 1431 1430 1429 1428 1427 1426 1425 1424 1422 1421 1421 1420 1419 1418 1417 1415 1415 1414 1413 1412 1411 1410 1409 1408 1408 1407 1406 1404 1403 1402 1401 1399
1439 1438 1437 1436 1434 1433 1432 1431 1430 1429 1427 1426 1425 1423 1422 1421 1420 1419 1418 1417 1417 1416 1415 1414 1413 1412 1412 1411 1409 1409 1408 1407 1406 1405 1404 1403 1402 1401 1400 1399 1397 1396 1395